Paganella, Italy

7:30 PM CET on March 25, 2017 (GMT +0100)
Paganella

Weather History for LIVP - February, 2013

Change the Weather History Date:

Friday, February 22, 2013

  Actual Average Record
Temperature  
Mean Temperature 14 °F -  
Max Temperature 17 °F 29 °F 43 °F (2016)
Min Temperature 10 °F 20 °F 10 °F (2002)
Degree Days  
Heating Degree Days 52    
Moisture  
Dew Point 10 °F    
Average Humidity 83    
Maximum Humidity 92    
Minimum Humidity 69    
Precipitation  
Precipitation 0.00 in 0.05 in - ()
Sea Level Pressure  
Sea Level Pressure 29.33 in    
Wind  
Wind Speed 3 mph ()    
Max Wind Speed 10 mph    
Max Gust Speed -    
Visibility 1.6 miles    
Events Fog    
Averages and records for this station are not official NWS values.
T = Trace of Precipitation, MM = Missing Value Source: Averaged Metar Reports

Daily Weather History Graph

Daily Weather History Graph

Search for Another Location

Airport or City:

Trip Planner

Search our weather history database for the weather conditions in past years. The results will help you decide how hot, cold, wet, or windy it might be!

Date:

Astronomy

Feb. 22, 2013 Rise Set
Actual Time 7:07 AM CET 5:52 PM CET
Civil Twilight 6:36 AM CET 6:22 PM CET
Nautical Twilight 6:02 AM CET 6:57 PM CET
Astronomical Twilight 5:27 AM CET 7:32 PM CET
Moon 2:40 PM CET (2/22) 4:49 AM CET (2/22)
Length of Visible Light 11h 45m
Length of Day
10h 44m
Waxing Gibbous, 88% of the Moon is Illuminated
Feb 22
Waxing Gibbous
Feb 25
Full
Mar 4
Last Quarter
Mar 11
New
Mar 19
First Quarter

Hourly Weather History & Observations

Time (CET) Temp. Windchill Dew Point Humidity Pressure Visibility Wind Dir Wind Speed Gust Speed Precip Events Conditions
12:55 AM 14.0 °F - 10.4 °F 86% 29.42 in 0.0 mi Variable 2.3 mph - N/A Fog Light Freezing Fog
1:00 AM 14 °F - 11 °F 82%  in 0 mi 2.3 mph - - Fog Heavy Fog
1:55 AM 14.0 °F 8.2 °F 10.4 °F 86% 29.42 in 0.2 mi West 3.5 mph - N/A Fog Light Freezing Fog
2:55 AM 14.0 °F - 10.4 °F 86% 29.42 in 0.4 mi Variable 2.3 mph - N/A Fog Light Freezing Fog
3:55 AM 14.0 °F 8.2 °F 10.4 °F 86% 29.39 in 0.0 mi Variable 3.5 mph - N/A Fog Light Freezing Fog
4:00 AM 14 °F - 11 °F 83%  in 0 mi 3.5 mph - - Fog Heavy Fog
4:55 AM 14.0 °F - 8.6 °F 79% 29.36 in 0.0 mi Calm Calm - N/A Fog Light Freezing Fog
5:55 AM 10.4 °F 2.2 °F 8.6 °F 92% 29.36 in 0.0 mi North 4.6 mph - N/A Fog Light Freezing Fog
6:55 AM 12.2 °F 6.1 °F 8.6 °F 85% 29.33 in 0.0 mi North 3.5 mph - N/A Fog Light Freezing Fog
7:00 AM 11 °F - 8 °F 81%  in 0 mi North 3.5 mph - - Fog Heavy Fog
7:55 AM 10.4 °F -0.4 °F 6.8 °F 85% 29.33 in 0.0 mi North 6.9 mph - N/A Fog Light Freezing Fog
8:55 AM 10.4 °F -0.4 °F 8.6 °F 92% 29.33 in 0.0 mi North 6.9 mph - N/A Fog Light Freezing Fog
9:55 AM 10.4 °F -1.5 °F 8.6 °F 92% 29.33 in 0.0 mi North 8.1 mph - N/A Fog Light Freezing Fog
10:00 AM 11 °F - 9 °F 87%  in 0 mi North 8.1 mph - - Fog Heavy Fog
10:55 AM 10.4 °F 0.8 °F 8.6 °F 92% 29.33 in 0.1 mi North 5.8 mph - N/A Fog Light Freezing Fog
11:55 AM 12.2 °F 2.9 °F 8.6 °F 85% 29.33 in 0.4 mi NNW 5.8 mph - N/A Fog Light Freezing Fog
12:55 PM 15.8 °F - 10.4 °F 79% 29.33 in 0.4 mi North 2.3 mph - N/A Fog Light Freezing Fog
1:00 PM 15 °F - 11 °F 78%  in 0 mi North 2.3 mph - - Fog Heavy Fog
2:55 PM 15.8 °F - 12.2 °F 86% 29.30 in 6.2 mi SE 2.3 mph - N/A   Mostly Cloudy
3:55 PM 17.6 °F - 12.2 °F 79% 29.30 in 6.2 mi Calm Calm - N/A   Mostly Cloudy
4:00 PM 17 °F - 12 °F 72%  in 6 mi Calm Calm - -   Partly Cloudy
4:55 PM 15.8 °F 7.2 °F 10.4 °F 79% 29.30 in 6.2 mi ESE 5.8 mph - N/A   Scattered Clouds
5:55 PM 14.0 °F 6.5 °F 8.6 °F 79% 29.30 in 6.2 mi SE 4.6 mph - N/A   Scattered Clouds
6:55 PM 14.0 °F - 8.6 °F 79% 29.30 in 6.2 mi Calm Calm - N/A   Mostly Cloudy
7:00 PM 15 °F - 9 °F 69%  in 6 mi Calm Calm - -   Partly Cloudy
7:55 PM 15.8 °F - 10.4 °F 79% 29.30 in 1.9 mi WNW 2.3 mph - N/A   Mostly Cloudy
8:55 PM 14.0 °F 6.5 °F 8.6 °F 79% 29.30 in 1.9 mi NNW 4.6 mph - N/A   Mostly Cloudy
9:55 PM 12.2 °F -0.2 °F 8.6 °F 85% 29.30 in 0.4 mi North 9.2 mph - N/A Fog Light Freezing Fog
10:00 PM 12 °F - 8 °F 77%  in 0 mi North 9.2 mph - - Fog Heavy Fog
10:55 PM 12.2 °F -0.2 °F 8.6 °F 85% 29.30 in 0.4 mi NNE 9.2 mph - N/A Fog Light Freezing Fog
11:55 PM 10.4 °F -3.3 °F 8.6 °F 92% 29.30 in 0.2 mi North 10.4 mph - N/A Fog Light Freezing Fog